Simultaneous Nadir Overpasses (SNOs) Predictions

Prediction of SNOs near equator between AQUA and NPP Satellite Orbit:

Table of predicted SNOs near equator for the next 14.0 days since TLE Epoch: 1/9/2016
Index Date (AQUA) Time (AQUA) AQUA Lat,Lon Date (NPP) Time (NPP) NPP Lat,Lon Distance(km) Time Diff (sec)
1 01/11/2016 14:53:10 -28.70, 156.08 01/11/2016 14:43:26 -28.70, 156.08 0.69 584
2 01/11/2016 15:35:14 1.78, -30.18 01/11/2016 15:26:36 1.78, -30.19 1.22 518
3 01/11/2016 16:23:13 3.26, 138.54 01/11/2016 16:15:50 3.32, 138.28 30.72 443
4 01/11/2016 17:11:28 -7.84, -52.85 01/11/2016 17:05:20 -7.96, -53.38 60.29 368
5 01/11/2016 17:59:35 12.39, 115.79 01/11/2016 17:54:43 12.54, 114.99 88.84 292
6 01/14/2016 07:07:51 -22.10, -86.42 01/14/2016 06:58:26 -22.10, -86.43 1.14 565
7 01/14/2016 07:51:15 -0.02, 86.07 01/14/2016 07:42:58 -0.04, 85.99 10.03 497
8 01/14/2016 08:39:23 4.52,-105.31 01/14/2016 08:32:21 4.60,-105.66 40.14 422
9 01/14/2016 09:27:38 -9.09, 63.29 01/14/2016 09:21:51 -9.25, 62.68 69.49 347
10 01/14/2016 10:15:45 13.64,-128.05 01/14/2016 10:11:14 13.82,-128.94 97.51 271
11 01/16/2016 23:21:46 -12.79, 31.57 01/16/2016 23:12:39 -12.79, 31.57 0.57 547
12 01/17/2016 00:07:24 -1.26,-157.79 01/16/2016 23:59:28 -1.32,-157.95 19.79 476
13 01/17/2016 00:55:30 5.88, 10.86 01/17/2016 00:48:50 5.95, 10.41 49.60 400
14 01/17/2016 01:43:46 -10.39, 179.45 01/17/2016 01:38:21 -10.54, 178.75 78.59 325
15 01/19/2016 14:53:23 29.03, -24.03 01/19/2016 14:43:28 29.03, -24.01 2.22 595
16 01/19/2016 15:35:30 -2.75, 149.62 01/19/2016 15:26:41 -2.75, 149.62 0.03 529
17 01/19/2016 16:23:32 -2.60, -41.62 01/19/2016 16:15:58 -2.66, -41.88 29.33 454
18 01/19/2016 17:11:40 7.10, 126.99 01/19/2016 17:05:21 7.23, 126.48 59.11 379
19 01/19/2016 17:59:54 -11.73, -64.38 01/19/2016 17:54:51 -11.88, -65.17 87.70 303
20 01/22/2016 07:08:06 22.60, 93.44 01/22/2016 06:58:31 22.60, 93.44 0.13 575
21 01/22/2016 07:51:24 -0.59, -94.04 01/22/2016 07:42:57 -0.59, -94.13 9.23 507
22 01/22/2016 08:39:40 -3.92, 74.54 01/22/2016 08:32:28 -4.00, 74.19 39.12 432
23 01/22/2016 09:27:48 8.42,-116.84 01/22/2016 09:21:51 8.57,-117.45 68.61 357
24 01/22/2016 10:16:02 -13.05, 51.79 01/22/2016 10:11:21 -13.22, 50.91 96.77 281




NCC Satellite Simultaneous Nadir Overpasses (SNOs) Prediction Service
